DECAYED
Showing default

PROGRESS MS-32, 65586 (Decayed)

Orbit data source: Space-Track

PROGRESS MS-32, 65586 was a payload satellite owned by RKKE (CIS) in LEO that was launched on Thu, 11 Sep 2025 UTC via a SOYUZ-2-1A launch vehicle from the Tyuratam Missile And Space Complex (TTMTR). Payload-class satellites include a variety of spacecraft equipped with specific instruments for various scientific and technological missions. These include communications satellites like Starlink; space stations such as the ISS; scientific satellites like the Hubble; Earth observation satellites from companies like Planet Labs, Umbra, and HawkEye 360; GPS; miniature CubeSats for education and research; and military/defense satellites.

Loading next visibility...
Identifier
65586, 2025-204A
Orbit
Decayed
Country
Flag of CISCIS
Related business
Manufacturer
TsSKB-Progress
Mission
Decayed Civil Spaceship
Bus & Motor
7K-TGM, 11D428A
Mass
7,427 kg wet, 4,325 kg dry
Launch date (UTC)
2025-09-11 (9 months ago)
Launch vehicle
SOYUZ-2-1A
Launch site
Tyuratam Missile And Space Complex (TTMTR)
Object type
Payload
Rocket body
Debris
Shape & HBR
Cyl + Sphere + Cone + 2 Pan, 14.5 m
Radar Cross Section
19.615 m²

Expand to show TLE details & history
Last TLE update: 2 months ago

TLE from 2 months ago
0 PROGRESS MS-32
1 65586U 25204A   26110.78039753  .00009753  00000-0  18580-3 0  9994
2 65586  51.6325 224.2241 0006702 330.9223  29.1391 15.48857372554502
Epoch: 2026-04-20T18:43Z
TLE epoch observation values (Epoch: 2026-04-20T18:43:46.346Z)
Latitude
-0.00005°
Longitude
94.41533°
Altitude
416.829 km
Speed
7.665 km/s
True Right ascension
14h 56m 53s
True Declination
0° 00' 00"
Sunlit
Object was in full shadow at epoch
Visualization orbit readout
Latitude
Unknown
Longitude
Unknown
Altitude
Unknown
Speed
Unknown
Apparent Right ascension
Unknown
Apparent Declination
Unknown
Sunlit
N/A
Visualization observer readout
Local Sidereal Time
10:18:31
Azimuth
Unknown
Elevation
Unknown
Doppler factor
Unknown
Orbital elements
Apogee altitude
425.133 km
Perigee altitude
416.02 km
Semi-major axis
6,798.713 km
Eccentricity
0.00067
Inclination
51.6325°
RAAN
224.2241°
Arg. of periapsis
330.9223°
True anomaly
29.17652°
Mean anomaly
29.1391°
Eccentric anomaly
29.15781°
Mean motion
3.87171 °/min
Orbital period
92.98 mins
BSTAR
0.0001858
Loading maneuver chart data...
Computing Atmospheric mass density...
Loading historical data...
Loading historical data...
Loading historical data...
Loading historical data...
Loading historical data...
Loading historical data...
Loading historical data...
Other satellites on launch #204 in the year 2025 (2025-09-11 UTC)

Documentation

Showing up to 5 results
|